Year,Month,Day,Hour,Minute,Value (Times are PST for temperature in C)
2011,08,21,00,00,17.40
2011,08,21,00,01,17.40
2011,08,21,00,02,17.40
2011,08,21,00,03,17.40
2011,08,21,00,04,17.40
2011,08,21,00,05,17.40
2011,08,21,00,06,17.40
2011,08,21,00,07,17.40
2011,08,21,00,08,17.40
2011,08,21,00,09,17.50
2011,08,21,00,10,17.50
2011,08,21,00,11,17.50
2011,08,21,00,12,17.50
2011,08,21,00,13,17.50
2011,08,21,00,14,17.50
2011,08,21,00,15,17.50
2011,08,21,00,16,17.50
2011,08,21,00,17,17.50
2011,08,21,00,18,17.50
2011,08,21,00,19,17.50
2011,08,21,00,20,17.50
2011,08,21,00,21,17.50
2011,08,21,00,22,17.50
2011,08,21,00,23,17.60
2011,08,21,00,24,17.60
2011,08,21,00,25,17.60
2011,08,21,00,26,17.60
2011,08,21,00,27,17.60
2011,08,21,00,28,17.60
2011,08,21,00,29,17.60
2011,08,21,00,30,17.60
2011,08,21,00,31,17.60
2011,08,21,00,32,17.60
2011,08,21,00,33,17.60
2011,08,21,00,34,17.60
2011,08,21,00,35,17.60
2011,08,21,00,36,17.60
2011,08,21,00,37,17.60
2011,08,21,00,38,17.50
2011,08,21,00,39,17.50
2011,08,21,00,40,17.50
2011,08,21,00,41,17.50
2011,08,21,00,42,17.50
2011,08,21,00,43,17.50
2011,08,21,00,44,17.50
2011,08,21,00,45,17.50
2011,08,21,00,46,17.50
2011,08,21,00,47,17.50
2011,08,21,00,48,17.40
2011,08,21,00,49,17.40
2011,08,21,00,50,17.40
2011,08,21,00,51,17.40
2011,08,21,00,52,17.40
2011,08,21,00,53,17.30
2011,08,21,00,54,17.30
2011,08,21,00,55,17.30
2011,08,21,00,56,17.30
2011,08,21,00,57,17.30
2011,08,21,00,58,17.40
2011,08,21,00,59,17.40
2011,08,21,01,00,17.40
2011,08,21,01,01,17.40
2011,08,21,01,02,17.40
2011,08,21,01,03,17.50
2011,08,21,01,04,17.50
2011,08,21,01,05,17.50
2011,08,21,01,06,17.50
2011,08,21,01,07,17.50
2011,08,21,01,08,17.50
2011,08,21,01,09,17.50
2011,08,21,01,10,17.50
2011,08,21,01,11,17.50
2011,08,21,01,12,17.60
2011,08,21,01,13,17.60
2011,08,21,01,14,17.60
2011,08,21,01,15,17.70
2011,08,21,01,16,17.70
2011,08,21,01,17,17.70
2011,08,21,01,18,17.70
2011,08,21,01,19,17.80
2011,08,21,01,20,17.80
2011,08,21,01,21,17.80
2011,08,21,01,22,17.80
2011,08,21,01,23,17.80
2011,08,21,01,24,17.80
2011,08,21,01,25,17.80
2011,08,21,01,26,17.80
2011,08,21,01,27,17.80
2011,08,21,01,28,17.80
2011,08,21,01,29,17.80
2011,08,21,01,30,17.80
2011,08,21,01,31,17.80
2011,08,21,01,32,17.80
2011,08,21,01,33,17.80
2011,08,21,01,34,17.80
2011,08,21,01,35,17.80
2011,08,21,01,36,17.80
2011,08,21,01,37,17.90
2011,08,21,01,38,17.90
2011,08,21,01,39,17.90
2011,08,21,01,40,17.90
2011,08,21,01,41,17.90
2011,08,21,01,42,17.90
2011,08,21,01,43,17.90
2011,08,21,01,44,17.90
2011,08,21,01,45,17.90
2011,08,21,01,46,17.90
2011,08,21,01,47,17.90
2011,08,21,01,48,17.90
2011,08,21,01,49,17.90
2011,08,21,01,50,17.90
2011,08,21,01,51,17.80
2011,08,21,01,52,17.80
2011,08,21,01,53,17.80
2011,08,21,01,54,17.80
2011,08,21,01,55,17.80
2011,08,21,01,56,17.80
2011,08,21,01,57,17.80
2011,08,21,01,58,17.80
2011,08,21,01,59,17.90
2011,08,21,02,00,17.90
2011,08,21,02,01,17.90
2011,08,21,02,02,17.90
2011,08,21,02,03,17.90
2011,08,21,02,04,17.90
2011,08,21,02,05,17.90
2011,08,21,02,06,17.90
2011,08,21,02,07,17.90
2011,08,21,02,08,17.90
2011,08,21,02,09,17.90
2011,08,21,02,10,17.90
2011,08,21,02,11,17.90
2011,08,21,02,12,17.90
2011,08,21,02,13,17.90
2011,08,21,02,14,17.90
2011,08,21,02,15,17.90
2011,08,21,02,16,17.90
2011,08,21,02,17,17.90
2011,08,21,02,18,17.90
2011,08,21,02,19,17.90
2011,08,21,02,20,17.90
2011,08,21,02,21,17.90
2011,08,21,02,22,17.90
2011,08,21,02,23,17.90
2011,08,21,02,24,17.90
2011,08,21,02,25,17.90
2011,08,21,02,26,17.90
2011,08,21,02,27,17.90
2011,08,21,02,28,17.90
2011,08,21,02,29,17.90
2011,08,21,02,30,17.90
2011,08,21,02,31,17.90
2011,08,21,02,32,17.90
2011,08,21,02,33,17.90
2011,08,21,02,34,17.90
2011,08,21,02,35,17.90
2011,08,21,02,36,17.90
2011,08,21,02,37,17.90
2011,08,21,02,38,17.90
2011,08,21,02,39,17.90
2011,08,21,02,40,17.90
2011,08,21,02,41,17.80
2011,08,21,02,42,17.80
2011,08,21,02,43,17.80
2011,08,21,02,44,17.80
2011,08,21,02,45,17.80
2011,08,21,02,46,17.80
2011,08,21,02,47,17.80
2011,08,21,02,48,17.70
2011,08,21,02,49,17.70
2011,08,21,02,50,17.60
2011,08,21,02,51,17.60
2011,08,21,02,52,17.50
2011,08,21,02,53,17.50
2011,08,21,02,54,17.40
2011,08,21,02,55,17.40
2011,08,21,02,56,17.30
2011,08,21,02,57,17.30
2011,08,21,02,58,17.30
2011,08,21,02,59,17.20
2011,08,21,03,00,17.20
2011,08,21,03,01,17.10
2011,08,21,03,02,17.10
2011,08,21,03,03,17.00
2011,08,21,03,04,17.00
2011,08,21,03,05,16.90
2011,08,21,03,06,16.90
2011,08,21,03,07,16.80
2011,08,21,03,08,16.80
2011,08,21,03,09,16.80
2011,08,21,03,10,16.70
2011,08,21,03,11,16.70
2011,08,21,03,12,16.70
2011,08,21,03,13,16.60
2011,08,21,03,14,16.60
2011,08,21,03,15,16.60
2011,08,21,03,16,16.50
2011,08,21,03,17,16.40
2011,08,21,03,18,16.40
2011,08,21,03,19,16.40
2011,08,21,03,20,16.40
2011,08,21,03,21,16.30
2011,08,21,03,22,16.30
2011,08,21,03,23,16.30
2011,08,21,03,24,16.30
2011,08,21,03,25,16.20
2011,08,21,03,26,16.20
2011,08,21,03,27,16.20
2011,08,21,03,28,16.20
2011,08,21,03,29,16.10
2011,08,21,03,30,16.10
2011,08,21,03,31,16.10
2011,08,21,03,32,16.10
2011,08,21,03,33,16.10
2011,08,21,03,34,16.10
2011,08,21,03,35,16.10
2011,08,21,03,36,16.10
2011,08,21,03,37,16.10
2011,08,21,03,38,16.10
2011,08,21,03,39,16.10
2011,08,21,03,40,16.10
2011,08,21,03,41,16.10
2011,08,21,03,42,16.10
2011,08,21,03,43,16.10
2011,08,21,03,44,16.00
2011,08,21,03,45,15.90
2011,08,21,03,46,15.90
2011,08,21,03,47,15.90
2011,08,21,03,48,15.90
2011,08,21,03,49,15.90
2011,08,21,03,50,15.90
2011,08,21,03,51,15.90
2011,08,21,03,52,15.90
2011,08,21,03,53,15.90
2011,08,21,03,54,15.90
2011,08,21,03,55,15.90
2011,08,21,03,56,15.90
2011,08,21,03,57,15.80
2011,08,21,03,58,15.80
2011,08,21,03,59,15.80
2011,08,21,04,00,15.80
2011,08,21,04,01,15.80
2011,08,21,04,02,15.80
2011,08,21,04,03,15.80
2011,08,21,04,04,15.80
2011,08,21,04,05,15.80
2011,08,21,04,06,15.80
2011,08,21,04,07,15.70
2011,08,21,04,08,15.70
2011,08,21,04,09,15.70
2011,08,21,04,10,15.70
2011,08,21,04,11,15.60
2011,08,21,04,12,15.60
2011,08,21,04,13,15.60
2011,08,21,04,14,15.60
2011,08,21,04,15,15.60
2011,08,21,04,16,15.60
2011,08,21,04,17,15.50
2011,08,21,04,18,15.50
2011,08,21,04,19,15.50
2011,08,21,04,20,15.50
2011,08,21,04,21,15.50
2011,08,21,04,22,15.50
2011,08,21,04,23,15.50
2011,08,21,04,24,15.50
2011,08,21,04,25,15.50
2011,08,21,04,26,15.50
2011,08,21,04,27,15.50
2011,08,21,04,28,15.50
2011,08,21,04,29,15.50
2011,08,21,04,30,15.50
2011,08,21,04,31,15.50
2011,08,21,04,32,15.50
2011,08,21,04,33,15.50
2011,08,21,04,34,15.50
2011,08,21,04,35,15.50
2011,08,21,04,36,15.50
2011,08,21,04,37,15.50
2011,08,21,04,38,15.50
2011,08,21,04,39,15.40
2011,08,21,04,40,15.40
2011,08,21,04,41,15.40
2011,08,21,04,42,15.40
2011,08,21,04,43,15.40
2011,08,21,04,44,15.40
2011,08,21,04,45,15.40
2011,08,21,04,46,15.40
2011,08,21,04,47,15.40
2011,08,21,04,48,15.40
2011,08,21,04,49,15.40
2011,08,21,04,50,15.40
2011,08,21,04,51,15.40
2011,08,21,04,52,15.40
2011,08,21,04,53,15.40
2011,08,21,04,54,15.40
2011,08,21,04,55,15.40
2011,08,21,04,56,15.40
2011,08,21,04,57,15.40
2011,08,21,04,58,15.40
2011,08,21,04,59,15.40
2011,08,21,05,00,15.40
2011,08,21,05,01,15.50
2011,08,21,05,02,15.50
2011,08,21,05,03,15.50
2011,08,21,05,04,15.50
2011,08,21,05,05,15.50
2011,08,21,05,06,15.50
2011,08,21,05,07,15.50
2011,08,21,05,08,15.50
2011,08,21,05,09,15.50
2011,08,21,05,10,15.50
2011,08,21,05,11,15.50
2011,08,21,05,12,15.50
2011,08,21,05,13,15.50
2011,08,21,05,14,15.50
2011,08,21,05,15,15.50
2011,08,21,05,16,15.50
2011,08,21,05,17,15.50
2011,08,21,05,18,15.50
2011,08,21,05,19,15.50
2011,08,21,05,20,15.50
2011,08,21,05,21,15.50
2011,08,21,05,22,15.50
2011,08,21,05,23,15.50
2011,08,21,05,24,15.50
2011,08,21,05,25,15.60
2011,08,21,05,26,15.60
2011,08,21,05,27,15.60
2011,08,21,05,28,15.60
2011,08,21,05,29,15.60
2011,08,21,05,30,15.60
2011,08,21,05,31,15.60
2011,08,21,05,32,15.60
2011,08,21,05,33,15.70
2011,08,21,05,34,15.70
2011,08,21,05,35,15.70
2011,08,21,05,36,15.70
2011,08,21,05,37,15.70
2011,08,21,05,38,15.70
2011,08,21,05,39,15.70
2011,08,21,05,40,15.70
2011,08,21,05,41,15.70
2011,08,21,05,42,15.70
2011,08,21,05,43,15.70
2011,08,21,05,44,15.70
2011,08,21,05,45,15.70
2011,08,21,05,46,15.70
2011,08,21,05,47,15.70
2011,08,21,05,48,15.70
2011,08,21,05,49,15.80
2011,08,21,05,50,15.80
2011,08,21,05,51,15.80
2011,08,21,05,52,15.80
2011,08,21,05,53,15.80
2011,08,21,05,54,15.80
2011,08,21,05,55,15.80
2011,08,21,05,56,15.80
2011,08,21,05,57,15.80
2011,08,21,05,58,15.70
2011,08,21,05,59,15.70
2011,08,21,06,00,15.70
2011,08,21,06,01,15.70
2011,08,21,06,02,15.70
2011,08,21,06,03,15.70
2011,08,21,06,04,15.70
2011,08,21,06,05,15.70
2011,08,21,06,06,15.70
2011,08,21,06,07,15.70
2011,08,21,06,08,15.70
2011,08,21,06,09,15.70
2011,08,21,06,10,15.70
2011,08,21,06,11,15.80
2011,08,21,06,12,15.80
2011,08,21,06,13,15.80
2011,08,21,06,14,15.80
2011,08,21,06,15,15.80
2011,08,21,06,16,15.80
2011,08,21,06,17,15.90
2011,08,21,06,18,15.90
2011,08,21,06,19,15.90
2011,08,21,06,20,16.00
2011,08,21,06,21,16.10
2011,08,21,06,22,16.10
2011,08,21,06,23,16.10
2011,08,21,06,24,16.10
2011,08,21,06,25,16.20
2011,08,21,06,26,16.20
2011,08,21,06,27,16.20
2011,08,21,06,28,16.20
2011,08,21,06,29,16.30
2011,08,21,06,30,16.30
2011,08,21,06,31,16.30
2011,08,21,06,32,16.30
2011,08,21,06,33,16.30
2011,08,21,06,34,16.40
2011,08,21,06,35,16.40
2011,08,21,06,36,16.40
2011,08,21,06,37,16.40
2011,08,21,06,38,16.40
2011,08,21,06,39,16.40
2011,08,21,06,40,16.50
2011,08,21,06,41,16.60
2011,08,21,06,42,16.60
2011,08,21,06,43,16.70
2011,08,21,06,44,16.70
2011,08,21,06,45,16.70
2011,08,21,06,46,16.80
2011,08,21,06,47,16.80
2011,08,21,06,48,16.80
2011,08,21,06,49,16.80
2011,08,21,06,50,16.80
2011,08,21,06,51,16.80
2011,08,21,06,52,16.80
2011,08,21,06,53,16.80
2011,08,21,06,54,16.80
2011,08,21,06,55,16.70
2011,08,21,06,56,16.70
2011,08,21,06,57,16.70
2011,08,21,06,58,16.70
2011,08,21,06,59,16.70
2011,08,21,07,00,16.70
2011,08,21,07,01,16.70
2011,08,21,07,02,16.70
2011,08,21,07,03,16.80
2011,08,21,07,04,16.80
2011,08,21,07,05,16.80
2011,08,21,07,06,16.90
2011,08,21,07,07,16.90
2011,08,21,07,08,17.00
2011,08,21,07,09,17.00
2011,08,21,07,10,17.10
2011,08,21,07,11,17.20
2011,08,21,07,12,17.20
2011,08,21,07,13,17.30
2011,08,21,07,14,17.30
2011,08,21,07,15,17.30
2011,08,21,07,16,17.30
2011,08,21,07,17,17.30
2011,08,21,07,18,17.40
2011,08,21,07,19,17.40
2011,08,21,07,20,17.40
2011,08,21,07,21,17.40
2011,08,21,07,22,17.40
2011,08,21,07,23,17.40
2011,08,21,07,24,17.40
2011,08,21,07,25,17.40
2011,08,21,07,26,17.40
2011,08,21,07,27,17.40
2011,08,21,07,28,17.40
2011,08,21,07,29,17.40
2011,08,21,07,30,17.50
2011,08,21,07,31,17.50
2011,08,21,07,32,17.50
2011,08,21,07,33,17.50
2011,08,21,07,34,17.50
2011,08,21,07,35,17.50
2011,08,21,07,36,17.50
2011,08,21,07,37,17.50
2011,08,21,07,38,17.50
2011,08,21,07,39,17.50
2011,08,21,07,40,17.50
2011,08,21,07,41,17.60
2011,08,21,07,42,17.60
2011,08,21,07,43,17.60
2011,08,21,07,44,17.60
2011,08,21,07,45,17.60
2011,08,21,07,46,17.70
2011,08,21,07,47,17.70
2011,08,21,07,48,17.70
2011,08,21,07,49,17.70
2011,08,21,07,50,17.70
2011,08,21,07,51,17.70
2011,08,21,07,52,17.80
2011,08,21,07,53,17.80
2011,08,21,07,54,17.80
2011,08,21,07,55,17.80
2011,08,21,07,56,17.80
2011,08,21,07,57,17.90
2011,08,21,07,58,17.90
2011,08,21,07,59,17.90
2011,08,21,08,00,18.00
2011,08,21,08,01,18.10
2011,08,21,08,02,18.10
2011,08,21,08,03,18.20
2011,08,21,08,04,18.20
2011,08,21,08,05,18.20
2011,08,21,08,06,18.30
2011,08,21,08,07,18.30
2011,08,21,08,08,18.40
2011,08,21,08,09,18.40
2011,08,21,08,10,18.50
2011,08,21,08,11,18.50
2011,08,21,08,12,18.50
2011,08,21,08,13,18.60
2011,08,21,08,14,18.60
2011,08,21,08,15,18.70
2011,08,21,08,16,18.70
2011,08,21,08,17,18.80
2011,08,21,08,18,18.80
2011,08,21,08,19,18.80
2011,08,21,08,20,18.90
2011,08,21,08,21,18.90
2011,08,21,08,22,18.90
2011,08,21,08,23,18.90
2011,08,21,08,24,18.90
2011,08,21,08,25,18.90
2011,08,21,08,26,18.90
2011,08,21,08,27,18.80
2011,08,21,08,28,18.80
2011,08,21,08,29,18.80
2011,08,21,08,30,18.80
2011,08,21,08,31,18.80
2011,08,21,08,32,18.80
2011,08,21,08,33,18.80
2011,08,21,08,34,18.80
2011,08,21,08,35,18.80
2011,08,21,08,36,18.90
2011,08,21,08,37,18.90
2011,08,21,08,38,18.90
2011,08,21,08,39,18.90
2011,08,21,08,40,19.00
2011,08,21,08,41,19.10
2011,08,21,08,42,19.10
2011,08,21,08,43,19.20
2011,08,21,08,44,19.30
2011,08,21,08,45,19.40
2011,08,21,08,46,19.50
2011,08,21,08,47,19.60
2011,08,21,08,48,19.80
2011,08,21,08,49,19.90
2011,08,21,08,50,20.10
2011,08,21,08,51,20.20
2011,08,21,08,52,20.30
2011,08,21,08,53,20.40
2011,08,21,08,54,20.50
2011,08,21,08,55,20.50
2011,08,21,08,56,20.60
2011,08,21,08,57,20.60
2011,08,21,08,58,20.60
2011,08,21,08,59,20.60
2011,08,21,09,00,20.60
2011,08,21,09,01,20.60
2011,08,21,09,02,20.60
2011,08,21,09,03,20.50
2011,08,21,09,04,20.60
2011,08,21,09,05,20.60
2011,08,21,09,06,20.70
2011,08,21,09,07,20.80
2011,08,21,09,08,20.80
2011,08,21,09,09,20.90
2011,08,21,09,10,21.00
2011,08,21,09,11,21.00
2011,08,21,09,12,21.20
2011,08,21,09,13,21.30
2011,08,21,09,14,21.50
2011,08,21,09,15,21.70
2011,08,21,09,16,21.90
2011,08,21,09,17,22.20
2011,08,21,09,18,22.40
2011,08,21,09,19,22.60
2011,08,21,09,20,22.70
2011,08,21,09,21,22.80
2011,08,21,09,22,22.90
2011,08,21,09,23,23.00
2011,08,21,09,24,23.10
2011,08,21,09,25,23.20
2011,08,21,09,26,23.30
2011,08,21,09,27,23.50
2011,08,21,09,28,23.60
2011,08,21,09,29,23.70
2011,08,21,09,30,23.70
2011,08,21,09,31,23.70
2011,08,21,09,32,23.80
2011,08,21,09,33,23.90
2011,08,21,09,34,23.90
2011,08,21,09,35,23.90
2011,08,21,09,36,23.90
2011,08,21,09,37,23.90
2011,08,21,09,38,23.90
2011,08,21,09,39,23.90
2011,08,21,09,40,23.90
2011,08,21,09,41,23.90
2011,08,21,09,42,23.90
2011,08,21,09,43,23.90
2011,08,21,09,44,23.90
2011,08,21,09,45,23.90
2011,08,21,09,46,23.90
2011,08,21,09,47,24.00
2011,08,21,09,48,24.10
2011,08,21,09,49,24.10
2011,08,21,09,50,24.10
2011,08,21,09,51,24.10
2011,08,21,09,52,24.10
2011,08,21,09,53,24.10
2011,08,21,09,54,24.10
2011,08,21,09,55,24.10
2011,08,21,09,56,24.10
2011,08,21,09,57,24.10
2011,08,21,09,58,24.10
2011,08,21,09,59,24.00
2011,08,21,10,00,23.90
2011,08,21,10,01,23.90
2011,08,21,10,02,23.90
2011,08,21,10,03,23.90
2011,08,21,10,04,23.90
2011,08,21,10,05,23.90
2011,08,21,10,06,23.90
2011,08,21,10,07,23.90
2011,08,21,10,08,24.00
2011,08,21,10,09,24.10
2011,08,21,10,10,24.10
2011,08,21,10,11,24.10
2011,08,21,10,12,24.20
2011,08,21,10,13,24.20
2011,08,21,10,14,24.20
2011,08,21,10,15,24.30
2011,08,21,10,16,24.30
2011,08,21,10,17,24.40
2011,08,21,10,18,24.40
2011,08,21,10,19,24.40
2011,08,21,10,20,24.50
2011,08,21,10,21,24.50
2011,08,21,10,22,24.50
2011,08,21,10,23,24.50
2011,08,21,10,24,24.50
2011,08,21,10,25,24.50
2011,08,21,10,26,24.50
2011,08,21,10,27,24.60
2011,08,21,10,28,24.60
2011,08,21,10,29,24.70
2011,08,21,10,30,24.80
2011,08,21,10,31,24.90
2011,08,21,10,32,25.00
2011,08,21,10,33,25.20
2011,08,21,10,34,25.30
2011,08,21,10,35,25.40
2011,08,21,10,36,25.50
2011,08,21,10,37,25.60
2011,08,21,10,38,25.70
2011,08,21,10,39,25.80
2011,08,21,10,40,25.90
2011,08,21,10,41,26.00
2011,08,21,10,42,26.10
2011,08,21,10,43,26.10
2011,08,21,10,44,26.10
2011,08,21,10,45,26.10
2011,08,21,10,46,26.20
2011,08,21,10,47,26.20
2011,08,21,10,48,26.20
2011,08,21,10,49,26.30
2011,08,21,10,50,26.40
2011,08,21,10,51,26.40
2011,08,21,10,52,26.40
2011,08,21,10,53,26.50
2011,08,21,10,54,26.60
2011,08,21,10,55,26.60
2011,08,21,10,56,26.70
2011,08,21,10,57,26.80
2011,08,21,10,58,26.90
2011,08,21,10,59,26.90
2011,08,21,11,00,27.00
2011,08,21,11,01,27.10
2011,08,21,11,02,27.10
2011,08,21,11,03,27.10
2011,08,21,11,04,27.10
2011,08,21,11,05,27.10
2011,08,21,11,06,27.00
2011,08,21,11,07,27.00
2011,08,21,11,08,26.90
2011,08,21,11,09,26.90
2011,08,21,11,10,27.00
2011,08,21,11,11,27.10
2011,08,21,11,12,27.10
2011,08,21,11,13,27.10
2011,08,21,11,14,27.10
2011,08,21,11,15,27.20
2011,08,21,11,16,27.20
2011,08,21,11,17,27.20
2011,08,21,11,18,27.20
2011,08,21,11,19,27.20
2011,08,21,11,20,27.20
2011,08,21,11,21,27.30
2011,08,21,11,22,27.30
2011,08,21,11,23,27.30
2011,08,21,11,24,27.30
2011,08,21,11,25,27.20
2011,08,21,11,26,27.20
2011,08,21,11,27,27.20
2011,08,21,11,28,27.20
2011,08,21,11,29,27.20
2011,08,21,11,30,27.30
2011,08,21,11,31,27.30
2011,08,21,11,32,27.30
2011,08,21,11,33,27.30
2011,08,21,11,34,27.30
2011,08,21,11,35,27.30
2011,08,21,11,36,27.30
2011,08,21,11,37,27.30
2011,08,21,11,38,27.30
2011,08,21,11,39,27.30
2011,08,21,11,40,27.40
2011,08,21,11,41,27.40
2011,08,21,11,42,27.40
2011,08,21,11,43,27.40
2011,08,21,11,44,27.40
2011,08,21,11,45,27.40
2011,08,21,11,46,27.30
2011,08,21,11,47,27.30
2011,08,21,11,48,27.30
2011,08,21,11,49,27.30
2011,08,21,11,50,27.20
2011,08,21,11,51,27.20
2011,08,21,11,52,27.10
2011,08,21,11,53,27.00
2011,08,21,11,54,26.90
2011,08,21,11,55,26.90
2011,08,21,11,56,26.90
2011,08,21,11,57,26.90
2011,08,21,11,58,27.00
2011,08,21,11,59,27.10
2011,08,21,12,00,27.20
2011,08,21,12,01,27.30
2011,08,21,12,02,27.30
2011,08,21,12,03,27.40
2011,08,21,12,04,27.50
2011,08,21,12,05,27.60
2011,08,21,12,06,27.60
2011,08,21,12,07,27.70
2011,08,21,12,08,27.90
2011,08,21,12,09,28.00
2011,08,21,12,10,28.00
2011,08,21,12,11,28.10
2011,08,21,12,12,28.10
2011,08,21,12,13,28.10
2011,08,21,12,14,28.10
2011,08,21,12,15,28.10
2011,08,21,12,16,28.10
2011,08,21,12,17,28.20
2011,08,21,12,18,28.20
2011,08,21,12,19,28.30
2011,08,21,12,20,28.30
2011,08,21,12,21,28.40
2011,08,21,12,22,28.40
2011,08,21,12,23,28.50
2011,08,21,12,24,28.60
2011,08,21,12,25,28.50
2011,08,21,12,26,28.40
2011,08,21,12,27,28.40
2011,08,21,12,28,28.40
2011,08,21,12,29,28.50
2011,08,21,12,30,28.50
2011,08,21,12,31,28.50
2011,08,21,12,32,28.60
2011,08,21,12,33,28.60
2011,08,21,12,34,28.50
2011,08,21,12,35,28.40
2011,08,21,12,36,28.40
2011,08,21,12,37,28.40
2011,08,21,12,38,28.40
2011,08,21,12,39,28.50
2011,08,21,12,40,28.60
2011,08,21,12,41,28.60
2011,08,21,12,42,28.50
2011,08,21,12,43,28.40
2011,08,21,12,44,28.40
2011,08,21,12,45,28.30
2011,08,21,12,46,28.20
2011,08,21,12,47,28.20
2011,08,21,12,48,28.20
2011,08,21,12,49,28.20
2011,08,21,12,50,28.20
2011,08,21,12,51,28.20
2011,08,21,12,52,28.20
2011,08,21,12,53,28.20
2011,08,21,12,54,28.20
2011,08,21,12,55,28.10
2011,08,21,12,56,28.10
2011,08,21,12,57,28.10
2011,08,21,12,58,28.10
2011,08,21,12,59,28.10
2011,08,21,13,00,28.00
2011,08,21,13,01,28.00
2011,08,21,13,02,28.00
2011,08,21,13,03,27.90
2011,08,21,13,04,27.90
2011,08,21,13,05,27.90
2011,08,21,13,06,27.80
2011,08,21,13,07,27.80
2011,08,21,13,08,27.70
2011,08,21,13,09,27.70
2011,08,21,13,10,27.60
2011,08,21,13,11,27.60
2011,08,21,13,12,27.50
2011,08,21,13,13,27.40
2011,08,21,13,14,27.30
2011,08,21,13,15,27.30
2011,08,21,13,16,27.30
2011,08,21,13,17,27.30
2011,08,21,13,18,27.30
2011,08,21,13,19,27.30
2011,08,21,13,20,27.40
2011,08,21,13,21,27.40
2011,08,21,13,22,27.30
2011,08,21,13,23,27.30
2011,08,21,13,24,27.30
2011,08,21,13,25,27.40
2011,08,21,13,26,27.60
2011,08,21,13,27,27.70
2011,08,21,13,28,27.80
2011,08,21,13,29,28.00
2011,08,21,13,30,28.10
2011,08,21,13,31,28.10
2011,08,21,13,32,28.20
2011,08,21,13,33,28.30
2011,08,21,13,34,28.40
2011,08,21,13,35,28.40
2011,08,21,13,36,28.40
2011,08,21,13,37,28.40
2011,08,21,13,38,28.40
2011,08,21,13,39,28.50
2011,08,21,13,40,28.60
2011,08,21,13,41,28.60
2011,08,21,13,42,28.70
2011,08,21,13,43,28.80
2011,08,21,13,44,28.90
2011,08,21,13,45,28.90
2011,08,21,13,46,28.90
2011,08,21,13,47,28.90
2011,08,21,13,48,28.90
2011,08,21,13,49,29.00
2011,08,21,13,50,29.10
2011,08,21,13,51,29.00
2011,08,21,13,52,28.90
2011,08,21,13,53,28.90
2011,08,21,13,54,28.90
2011,08,21,13,55,28.90
2011,08,21,13,56,29.00
2011,08,21,13,57,29.10
2011,08,21,13,58,29.00
2011,08,21,13,59,28.90
2011,08,21,14,00,28.90
2011,08,21,14,01,28.90
2011,08,21,14,02,28.80
2011,08,21,14,03,28.80
2011,08,21,14,04,28.80
2011,08,21,14,05,28.80
2011,08,21,14,06,28.80
2011,08,21,14,07,28.90
2011,08,21,14,08,28.90
2011,08,21,14,09,29.10
2011,08,21,14,10,29.20
2011,08,21,14,11,29.30
2011,08,21,14,12,29.30
2011,08,21,14,13,29.30
2011,08,21,14,14,29.30
2011,08,21,14,15,29.30
2011,08,21,14,16,29.40
2011,08,21,14,17,29.40
2011,08,21,14,18,29.40
2011,08,21,14,19,29.40
2011,08,21,14,20,29.50
2011,08,21,14,21,29.50
2011,08,21,14,22,29.60
2011,08,21,14,23,29.60
2011,08,21,14,24,29.60
2011,08,21,14,25,29.70
2011,08,21,14,26,29.70
2011,08,21,14,27,29.70
2011,08,21,14,28,29.80
2011,08,21,14,29,29.80
2011,08,21,14,30,29.80
2011,08,21,14,31,29.80
2011,08,21,14,32,29.70
2011,08,21,14,33,29.70
2011,08,21,14,34,29.60
2011,08,21,14,35,29.60
2011,08,21,14,36,29.60
2011,08,21,14,37,29.60
2011,08,21,14,38,29.70
2011,08,21,14,39,29.60
2011,08,21,14,40,29.60
2011,08,21,14,41,29.60
2011,08,21,14,42,29.60
2011,08,21,14,43,29.60
2011,08,21,14,44,29.70
2011,08,21,14,45,29.80
2011,08,21,14,46,29.80
2011,08,21,14,47,29.90
2011,08,21,14,48,29.90
2011,08,21,14,49,29.90
2011,08,21,14,50,29.90
2011,08,21,14,51,29.80
2011,08,21,14,52,29.80
2011,08,21,14,53,29.70
2011,08,21,14,54,29.60
2011,08,21,14,55,29.50
2011,08,21,14,56,29.50
2011,08,21,14,57,29.40
2011,08,21,14,58,29.40
2011,08,21,14,59,29.40
2011,08,21,15,00,29.20
2011,08,21,15,01,29.20
2011,08,21,15,02,29.20
2011,08,21,15,03,29.20
2011,08,21,15,04,29.20
2011,08,21,15,05,29.20
2011,08,21,15,06,29.20
2011,08,21,15,07,29.20
2011,08,21,15,08,29.20
2011,08,21,15,09,29.20
2011,08,21,15,10,29.20
2011,08,21,15,11,29.20
2011,08,21,15,12,29.20
2011,08,21,15,13,29.20
2011,08,21,15,14,29.20
2011,08,21,15,15,29.10
2011,08,21,15,16,29.10
2011,08,21,15,17,29.10
2011,08,21,15,18,28.90
2011,08,21,15,19,28.90
2011,08,21,15,20,29.00
2011,08,21,15,21,29.10
2011,08,21,15,22,29.10
2011,08,21,15,23,29.00
2011,08,21,15,24,28.90
2011,08,21,15,25,28.90
2011,08,21,15,26,28.90
2011,08,21,15,27,28.80
2011,08,21,15,28,28.60
2011,08,21,15,29,28.50
2011,08,21,15,30,28.40
2011,08,21,15,31,28.40
2011,08,21,15,32,28.40
2011,08,21,15,33,28.40
2011,08,21,15,34,28.40
2011,08,21,15,35,28.40
2011,08,21,15,36,28.50
2011,08,21,15,37,28.60
2011,08,21,15,38,28.60
2011,08,21,15,39,28.60
2011,08,21,15,40,28.60
2011,08,21,15,41,28.60
2011,08,21,15,42,28.70
2011,08,21,15,43,28.70
2011,08,21,15,44,28.70
2011,08,21,15,45,28.60
2011,08,21,15,46,28.70
2011,08,21,15,47,28.70
2011,08,21,15,48,28.70
2011,08,21,15,49,28.70
2011,08,21,15,50,28.70
2011,08,21,15,51,28.60
2011,08,21,15,52,28.50
2011,08,21,15,53,28.40
2011,08,21,15,54,28.30
2011,08,21,15,55,28.20
2011,08,21,15,56,28.20
2011,08,21,15,57,28.10
2011,08,21,15,58,28.10
2011,08,21,15,59,28.10
2011,08,21,16,00,28.10
2011,08,21,16,01,28.10
2011,08,21,16,02,28.10
2011,08,21,16,03,28.00
2011,08,21,16,04,27.90
2011,08,21,16,05,27.90
2011,08,21,16,06,27.90
2011,08,21,16,07,27.80
2011,08,21,16,08,27.80
2011,08,21,16,09,27.70
2011,08,21,16,10,27.70
2011,08,21,16,11,27.70
2011,08,21,16,12,27.70
2011,08,21,16,13,27.60
2011,08,21,16,14,27.60
2011,08,21,16,15,27.60
2011,08,21,16,16,27.60
2011,08,21,16,17,27.60
2011,08,21,16,18,27.60
2011,08,21,16,19,27.60
2011,08,21,16,20,27.60
2011,08,21,16,21,27.70
2011,08,21,16,22,27.70
2011,08,21,16,23,27.70
2011,08,21,16,24,27.70
2011,08,21,16,25,27.70
2011,08,21,16,26,27.60
2011,08,21,16,27,27.60
2011,08,21,16,28,27.60
2011,08,21,16,29,27.60
2011,08,21,16,30,27.60
2011,08,21,16,31,27.60
2011,08,21,16,32,27.60
2011,08,21,16,33,27.60
2011,08,21,16,34,27.60
2011,08,21,16,35,27.70
2011,08,21,16,36,27.70
2011,08,21,16,37,27.70
2011,08,21,16,38,27.70
2011,08,21,16,39,27.70
2011,08,21,16,40,27.70
2011,08,21,16,41,27.70
2011,08,21,16,42,27.70
2011,08,21,16,43,27.60
2011,08,21,16,44,27.60
2011,08,21,16,45,27.60
2011,08,21,16,46,27.60
2011,08,21,16,47,27.60
2011,08,21,16,48,27.60
2011,08,21,16,49,27.60
2011,08,21,16,50,27.60
2011,08,21,16,51,27.60
2011,08,21,16,52,27.60
2011,08,21,16,53,27.40
2011,08,21,16,54,27.40
2011,08,21,16,55,27.30
2011,08,21,16,56,27.30
2011,08,21,16,57,27.30
2011,08,21,16,58,27.30
2011,08,21,16,59,27.20
2011,08,21,17,00,27.20
2011,08,21,17,01,27.10
2011,08,21,17,02,27.10
2011,08,21,17,03,27.10
2011,08,21,17,04,27.10
2011,08,21,17,05,27.10
2011,08,21,17,06,27.10
2011,08,21,17,07,27.00
2011,08,21,17,08,26.90
2011,08,21,17,09,26.90
2011,08,21,17,10,26.90
2011,08,21,17,11,26.90
2011,08,21,17,12,26.90
2011,08,21,17,13,26.90
2011,08,21,17,14,26.80
2011,08,21,17,15,26.80
2011,08,21,17,16,26.80
2011,08,21,17,17,26.80
2011,08,21,17,18,26.80
2011,08,21,17,19,26.70